Simultaneous Nadir Overpasses (SNOs) Predictions

Prediction of SNOs between NOAA-20 and AQUA Satellite Orbit:

Table of predicted SNOs for the next 14.0 days since TLE Epoch: 11/26/2022
Index Date (NOAA-20) Time (NOAA-20) Lat,Lon (NOAA-20) SZA (NOAA-20 ) Date (AQUA) Time (AQUA) Lat,Lon (AQUA) SZA (AQUA ) Distance(km) Time Diff (sec)
1 11/27/2022 17:32:12 -79.59, -5.59 67.44 11/27/2022 17:32:23 -79.58, -5.70 67.43 2.28 11
2 11/27/2022 18:22:52 79.72, 162.93 112.34 11/27/2022 18:21:44 79.73, 163.05 112.37 2.65 68
3 11/30/2022 08:58:20 79.54, -57.53 113.12 11/30/2022 08:58:26 79.54, -57.49 113.11 0.71 6
4 11/30/2022 09:48:58 -79.78, 111.90 67.27 11/30/2022 09:47:46 -79.78, 111.94 67.22 0.62 72
5 12/03/2022 00:24:29 -79.53,-109.12 66.43 12/03/2022 00:24:30 -79.54,-108.99 66.46 2.92 1
6 12/03/2022 01:12:39 80.74, 113.48 105.44 12/03/2022 01:11:26 81.41, 114.85 105.81 77.71 73
7 12/05/2022 15:00:16 -78.69, 25.98 64.79 12/05/2022 15:01:30 -78.64, 26.23 64.89 8.51 74
8 12/05/2022 15:50:34 79.61,-160.01 113.85 12/05/2022 15:50:30 79.61,-160.01 113.85 0.22 4
9 12/08/2022 06:26:06 79.31, -21.29 114.66 12/08/2022 06:27:14 79.32, -21.15 114.58 3.04 68



Historial Predications of SNOs between NOAA-20 and AQUA
